Weather History for Spokane Felts, WA

Change the Weather History Date:

Friday, November 25, 2011

  Actual Average Record
Temperature  
Mean Temperature 35 °F 34 °F  
Max Temperature 42 °F 40 °F 55 °F (1998)
Min Temperature 28 °F 28 °F 11 °F (2010)
Degree Days  
Heating Degree Days 30 31  
Month to date heating degree days 709 675  
Since 1 July heating degree days 1320 1412  
Cooling Degree Days 0 0  
Month to date cooling degree days 0 0  
Year to date cooling degree days 381 406  
Moisture  
Dew Point 25 °F    
Average Humidity 61    
Maximum Humidity 79    
Minimum Humidity 43    
Precipitation  
Precipitation 0.00 in 0.08 in 0.41 in (1998)
Month to date precipitation 1.35 1.84  
Year to date precipitation 15.57 14.79  
Sea Level Pressure  
Sea Level Pressure 30.22 in    
Wind  
Wind Speed 10 mph (West)    
Max Wind Speed 23 mph    
Max Gust Speed 29 mph    
Visibility 10 miles    
Events      
T = Trace of Precipitation, MM = Missing Value Source: NWS Daily Summary

Daily Weather History Graph

Daily Weather History Graph

Search for Another Location

Airport:

Trip Planner

Search our weather history database for the weather conditions in past years. The results will help you decide how hot, cold, wet, or windy it might be!

Date:

Astronomy

Nov. 25, 2011 Rise Set
Actual Time 7:08 AM PST 4:03 PM PST
Civil Twilight 6:34 AM PST 4:38 PM PST
Nautical Twilight 5:55 AM PST 5:16 PM PST
Astronomical Twilight 5:19 AM PST 5:53 PM PST
Moon 7:46 AM PST (11/25) 4:30 PM PST (11/25)
Length of Visible Light 10h 03m
Length of Day
8h 54m
New Moon, 0% of the Moon is Illuminated
Nov 25
New Moon
Dec 2
First Quarter
Dec 10
Full
Dec 17
Last Quarter
Dec 24
New

Hourly Weather History & Observations

Time (PST) Temp. Windchill Dew Point Humidity Pressure Visibility Wind Dir Wind Speed Gust Speed Precip Events Conditions
12:53 AM 39.9 °F 31.4 °F 34.0 °F 79% 29.72 in 10.0 mi WSW 16.1 mph 24.2 mph N/A   Scattered Clouds
1:53 AM 39.2 °F 33.6 °F 32.0 °F 75% 29.74 in 10.0 mi WSW 8.1 mph - N/A   Clear
2:53 AM 37.9 °F 30.9 °F 30.9 °F 76% 29.79 in 10.0 mi WSW 10.4 mph 19.6 mph N/A   Clear
3:53 AM 37.9 °F 28.9 °F 28.9 °F 70% 29.84 in 10.0 mi WSW 16.1 mph 25.3 mph N/A   Clear
4:53 AM 37.0 °F 28.1 °F 27.0 °F 67% 29.90 in 10.0 mi WSW 15.0 mph 27.6 mph N/A   Scattered Clouds
5:53 AM 37.0 °F 28.5 °F 25.0 °F 62% 29.96 in 10.0 mi WSW 13.8 mph 20.7 mph N/A   Scattered Clouds
6:53 AM 35.1 °F 24.8 °F 23.0 °F 61% 30.02 in 10.0 mi WSW 17.3 mph 24.2 mph N/A   Scattered Clouds
7:53 AM 34.0 °F 24.2 °F 24.1 °F 67% 30.09 in 10.0 mi West 15.0 mph 19.6 mph N/A   Scattered Clouds
8:53 AM 36.0 °F 26.7 °F 25.0 °F 64% 30.12 in 10.0 mi WSW 15.0 mph 21.9 mph N/A   Scattered Clouds
9:53 AM 37.9 °F 30.9 °F 24.1 °F 57% 30.17 in 10.0 mi WSW 10.4 mph - N/A   Scattered Clouds
10:53 AM 39.0 °F 34.0 °F 24.1 °F 55% 30.18 in 10.0 mi West 6.9 mph 23.0 mph N/A   Partly Cloudy
11:53 AM 41.0 °F 33.1 °F 24.1 °F 51% 30.23 in 10.0 mi West 15.0 mph 24.2 mph N/A   Scattered Clouds
12:53 PM 41.0 °F 32.5 °F 24.8 °F 53% 30.23 in 10.0 mi West 17.3 mph 24.2 mph N/A   Scattered Clouds
1:53 PM 42.1 °F 36.1 °F 21.9 °F 45% 30.30 in 10.0 mi West 10.4 mph - N/A   Clear
2:53 PM 42.1 °F 35.7 °F 21.0 °F 43% 30.36 in 10.0 mi WSW 11.5 mph 20.7 mph N/A   Scattered Clouds
3:53 PM 39.9 °F 35.1 °F 21.0 °F 47% 30.40 in 10.0 mi West 6.9 mph - N/A   Partly Cloudy
4:53 PM 35.1 °F - 23.0 °F 61% 30.45 in 10.0 mi Calm Calm - N/A   Clear
5:53 PM 30.9 °F - 24.1 °F 76% 30.49 in 10.0 mi Calm Calm - N/A   Clear
6:53 PM 30.0 °F 25.2 °F 23.0 °F 75% 30.51 in 10.0 mi ENE 4.6 mph - N/A   Clear
7:53 PM 28.0 °F 22.8 °F 21.9 °F 78% 30.55 in 10.0 mi NE 4.6 mph - N/A   Clear
8:53 PM 32.0 °F 27.5 °F 24.1 °F 73% 30.57 in 10.0 mi NNE 4.6 mph - N/A   Clear
9:53 PM 32.0 °F 27.5 °F 21.2 °F 64% 30.52 in 10.0 mi NNE 4.6 mph - N/A   Clear
10:53 PM 30.9 °F 26.2 °F 21.9 °F 69% 30.60 in 10.0 mi NE 4.6 mph - N/A   Partly Cloudy
11:53 PM 30.0 °F 25.2 °F 21.9 °F 72% 30.58 in 10.0 mi ENE 4.6 mph - N/A   Clear